[Iaude] MPEC E149: 2024 ED3 [a=1.92,e=0.51,i=5.8,H=25.2]
    mpec at cfa.harvard.edu 
    mpec at cfa.harvard.edu
       
    Mon Mar 11 20:57:50 EDT 2024
    
    
  
M.P.E.C. 2024-E149                               Issued 2024 March 12, 00:56 UT
     The Minor Planet Electronic Circulars contain information on unusual
         minor planets, routine data on comets and natural satellites,
         and occasional editorial announcements.  They are published
    on behalf of Division F of the International Astronomical Union by the
          Minor Planet Center, Smithsonian Astrophysical Observatory,
                          Cambridge, MA 02138, U.S.A.
			  
             Prepared using the Tamkin Foundation Computer Network
                              MPC at CFA.HARVARD.EDU
            URL https://www.minorplanetcenter.net/    ISSN 1523-6714
                                    2024 ED3                                    
Observations:
     K24E03D KC2024 02 09.41109110 20 33.340+28 47 04.96         22.47GVEE149F52
     K24E03D  C2024 02 13.56994910 21 26.211+29 06 53.54         23.16GVEE149F52
     K24E03D  C2024 02 13.58039210 21 26.172+29 06 55.58         22.76GVEE149F52
     K24E03D  C2024 02 13.59084310 21 26.136+29 06 57.48         23.15GVEE149F52
     K24E03D*1C2024 03 11.32772210 40 40.490+23 20 31.31         19.19GVEE149703
     K24E03D 1C2024 03 11.32999110 40 40.724+23 20 19.36         19.33GVEE149703
     K24E03D 1C2024 03 11.33226610 40 41.027+23 20 07.62         19.06GVEE149703
     K24E03D 1C2024 03 11.33453410 40 41.401+23 19 55.02         19.42GVEE149703
     K24E03D mC2024 03 11.35932710 40 44.908+23 17 38.98         19.24GVEE149I52
     K24E03D mC2024 03 11.35975110 40 44.990+23 17 36.67         18.95GVEE149I52
     K24E03D mC2024 03 11.36102910 40 45.167+23 17 29.72         19.38GVEE149I52
     K24E03D mC2024 03 11.36231510 40 45.332+23 17 22.60         18.97GVEE149I52
     K24E03D KB2024 03 11.37760 10 40 45.809+23 15 24.08         19.3 RZEE149H36
     K24E03D KB2024 03 11.38399 10 40 46.901+23 14 47.76         19.3 RZEE149H36
     K24E03D KB2024 03 11.39003 10 40 47.942+23 14 13.52         19.0 RZEE149H36
     K24E03D mC2024 03 11.42183810 40 54.631+23 11 46.72         19.24GVEE149I52
     K24E03D mC2024 03 11.42226210 40 54.721+23 11 44.38         19.48GVEE149I52
     K24E03D mC2024 03 11.42355010 40 54.941+23 11 37.03         19.50GVEE149I52
     K24E03D mC2024 03 11.42483610 40 55.139+23 11 29.62         19.22GVEE149I52
     K24E03D KB2024 03 11.51418 10 41 34.84 +23 02 55.9          19.1 GVEE149P13
     K24E03D KB2024 03 11.51829 10 41 35.59 +23 02 34.4          19.3 GVEE149P13
     K24E03D KB2024 03 11.52240 10 41 36.32 +23 02 13.0          19.1 GVEE149P13
     K24E03D KB2024 03 11.52651 10 41 37.10 +23 01 51.2          19.4 GVEE149P13
     K24E03D 1C2024 03 11.81638 10 42 44.70 +22 33 05.9          19.5 VXEE149033
     K24E03D 1C2024 03 11.81662 10 42 44.75 +22 33 04.1          19.7 VXEE149033
     K24E03D 1C2024 03 11.81684 10 42 44.79 +22 33 03.1          19.7 VXEE149033
     K24E03D KC2024 03 11.84519 10 42 47.167+22 30 09.61         18.8 GVEE149B42
     K24E03D KC2024 03 11.84659 10 42 47.417+22 30 01.48         18.5 GVEE149B42
     K24E03D KC2024 03 11.84799 10 42 47.674+22 29 53.20         18.6 GVEE149B42
     K24E03D KB2024 03 11.86081 10 42 53.851+22 28 46.06         18.8 GXEE149K74
     K24E03D KB2024 03 11.86552 10 42 54.773+22 28 17.87         18.9 GXEE149K74
     K24E03D KB2024 03 11.86661 10 42 55.41 +22 28 25.7          19.2 GVEE149130
     K24E03D KB2024 03 11.86998 10 42 55.637+22 27 50.94         18.8 GXEE149K74
     K24E03D KB2024 03 11.87186 10 42 56.39 +22 27 54.1          18.9 GVEE149130
     K24E03D KB2024 03 11.87444 10 42 56.484+22 27 24.01         18.8 GXEE149K74
     K24E03D KB2024 03 11.87711 10 42 57.35 +22 27 22.5          18.8 GVEE149130
     K24E03D KB2024 03 11.87891 10 42 57.360+22 26 56.94         18.8 GXEE149K74
     K24E03D KB2024 03 11.88659 10 43 00.21 +22 26 29.0          18.7 GXEE149K19
     K24E03D KB2024 03 11.89027 10 43 00.85 +22 26 07.0          18.7 GXEE149K19
     K24E03D KB2024 03 11.89396 10 43 01.54 +22 25 44.6          18.7 GXEE149K19
     K24E03D KB2024 03 11.97947410 43 18.56 +22 16 50.8          18.4 GXEE149958
     K24E03D KB2024 03 11.98228410 43 19.10 +22 16 32.9          18.9 GXEE149958
     K24E03D KB2024 03 11.98509610 43 19.59 +22 16 14.6          18.3 GXEE149958
     K24E03D KC2024 03 12.00230110 43 20.76 +22 14 14.0          18.8 GVEE149203
     K24E03D KC2024 03 12.01614810 43 23.41 +22 12 42.8          19.0 GVEE149203
Observer details:
033 Karl Schwarzschild Observatory, Tautenburg.  Observers S. Melnikov, C.
    Hogner, F. Ludwig, M. Hartmann, B. Stecklum.  Measurer B. Stecklum.
    1.34-m f/3 Schmidt + CCD.
130 Lumezzane.  Observers A. Coffano, W. Marinello, M. Micheli, G. Pizzetti,
    A. Soffiantini.  Measurer W. Marinello.  0.40-m f/6 reflector + CMO.
203 GiaGa Observatory.  Observer G. Galli.  0.36-m f/5.76 Schmidt-Cassegrain +
    CCD.
703 Catalina Sky Survey.  Observer H. Groeller.  Measurers T. Beuden, V. F.
    Carvajal, D. Fay, J. B. Fazekas, D. C. Fuls, A. R. Gibbs, A. D. Grauer, H.
    Groeller, J. K. Hogan, R. A. Kowalski, S. M. Larson, G. J. Leonard, D.
    Rankin, R. L. Seaman, F. C. Shelly, K. W. Wierzchos.  0.68-m Schmidt + 10K
    CCD.
958 Observatoire de Dax.  Observer P. Dupouy.  0.50-m f/4.5 Reflector + CMO.
B42 Vitebsk.  Observer V. Nevski.  0.3-m f/5.0 0.3-m f/5.0 reflector + CCD.
F52 Pan-STARRS 2, Haleakala.  Observers J. Herman, T. Lowe, P. Minguez, A.
    Schultz, I. Smith.  Measurers K. Chambers, T. de Boer, J. Fairlamb, H.
    Gao, M. Huber, C.-C. Lin, E. Magnier, Y. Ramanjooloo, R. Wainscoat, R.
    Weryk.  1.8-m Ritchey-Chretien + CCD.
H36 Sandlot Observatory, Scranton.  Observer G. Hug.  0.56-m f/4.8 reflector +
    CMO.
I52 Steward Observatory, Mt. Lemmon Station.  Observer H. Groeller.  Measurers
    T. Beuden, V. F. Carvajal, D. Fay, J. B. Fazekas, D. C. Fuls, A. R. Gibbs,
    A. D. Grauer, H. Groeller, J. K. Hogan, R. A. Kowalski, S. M. Larson, G.
    J. Leonard, D. Rankin, R. L. Seaman, F. C. Shelly, K. W. Wierzchos.  1.0-m
    prime focus + CCD.
K19 PASTIS Observatory, Banon.  Observer C. Demeautis.  0.28-m f/2.2 reflector
    + CMO.
K74 Muensterschwarzach Observatory, Schwarzach.  Observer C. Gerhard.  0.30-m
    f/3.75 reflector + CMO.
P13 Baihuashan Observatory, Beijing.  Observers Z. Wang, B. Liu.  Measurer Z.
    Wang.  0.28-m f/2.2 reflector + CMO.
Orbital elements:
2024 ED3                                                 Earth MOID = 0.0068 AU
Epoch 2024 Mar. 31.0 TT = JDT 2460400.5                 Veres                   
M 355.02473              (2000.0)            P               Q                  
n   0.37158840     Peri.  215.55293     -0.85608198     +0.51677963             
a   1.9161431      Node   355.54163     -0.44756542     -0.74889747             
e   0.5056009      Incl.    5.83510     -0.25847404     -0.41483901             
P   2.65           H   25.21          G   0.15           U   7                  
Residuals in seconds of arc
240209 F52  0.0   0.1-    240311 I52  0.0   0.2-    240311 K74  0.1-  0.1+
240213 F52  0.1+  0.1-    240311 I52  0.2+  0.1-    240311 130  0.1-  0.1+
240213 F52  0.0   0.0     240311 I52  0.3+  0.0     240311 K74  0.0   0.1-
240213 F52  0.1-  0.1+    240311 I52  0.0   0.1-    240311 130  0.1-  0.0
240311 703  0.9+  0.3-    240311 P13  0.4-  0.0     240311 K74  0.2-  0.0
240311 703  0.2-  0.0     240311 P13  0.3-  0.0     240311 130  0.4-  0.0
240311 703  0.4-  0.6+    240311 P13  0.3-  0.3+    240311 K74  0.1+  0.1-
240311 703  0.5+  0.2+    240311 P13  0.4+  0.2+    240311 K19  1.0+  0.0
240311 I52  0.1+  0.3-    240311 033  0.1+  0.0     240311 K19  0.3+  0.2+
240311 I52  0.4+  0.2-    240311 033  0.1+  0.4-    240311 K19  0.5+  0.2+
240311 I52  0.2+  0.1-    240311 033  0.0   0.1-    240311 958  0.7+  0.1-
240311 I52  0.1-  0.1-    240311 B42  0.2+  0.4-    240311 958  1.1+  0.0
240311 H36  0.2+  0.1-    240311 B42  0.1-  0.1-    240311 958  0.8+  0.3-
240311 H36  0.2+  0.3-    240311 B42  0.3-  0.1+    240312 203  0.1+  0.1-
240311 H36  0.2+  0.2-    240311 K74  0.3-  0.0     240312 203  0.0   0.0
Ephemeris:
2024 ED3                 a,e,i = 1.92, 0.51, 6                   q = 0.9473
Date    TT    R. A. (2000) Decl.     Delta      r    Elong.  Phase     V
2024 02 11    10 20 55.3 +28 55 01   0.2286  1.2063   162.0    14.6    23.2
...
2024 02 26    10 24 02.8 +29 23 11   0.1269  1.1097   159.6    18.1    21.9
...
2024 03 05    10 28 33.1 +28 01 25   0.07816 1.0640   156.6    21.8    20.9
...
2024 03 11    10 39 35.8 +23 48 34   0.04333 1.0335   157.1    22.0    19.5
2024 03 12    10 43 23.7 +22 16 09   0.03768 1.0287   158.1    21.1    19.2
2024 03 13    10 48 26.9 +20 09 46   0.03210 1.0241   159.7    19.7    18.8
...
2024 03 19    15 18 04.3 -58 19 15   0.0097080.9987   108.8    70.6    17.6
...
2024 03 27    21 40 59.1 -42 07 11   0.05025 0.9720    57.9   119.6    23.5
...
2024 04 11    22 08 25.7 -35 37 03   0.1349  0.9478    62.7   110.1    24.9
M. P. C. Staff               (C) Copyright 2024 MPC           M.P.E.C. 2024-E149
    
    
More information about the Iaude
mailing list